User: anonymous   Login
Location: Houston
(29.7630°N, 95.3630°W)
Time: 07:00:35
(UTC-06:00)
Language:

ISS - Orbit

View from above orbital plane
View from above orbital plane
View from above satellite
View from above satellite

Ground track
Ground track

The orbit data is extracted from the following two-line orbital elements,

1 25544U 98067A   17017.50557518  .00016717  00000-0  10270-3 0  9010
2 25544  51.6416  69.4846 0007482  91.8915 268.3095 15.54095680 38317
Epoch (UTC): 17 January 2017 12:08:01
Eccentricity: 0.0007482
inclination: 51.6416°
perigee height: 400 km
apogee height: 410 km
right ascension of ascending node: 69.4846°
argument of perigee: 91.8915°
revolutions per day: 15.54095680
mean anomaly at epoch: 268.3095°
orbit number at epoch: 3831

The dashed part of the orbit path shows where the satellite is in the earth's shadow,  

DLR